Satellite-Ground Cal/Val Region Overpasses Predictions

Prediction of Satellite NPP Overpassing Cal/Val Region: PacNW

Region Location: (Latitude: 10.00, Longitude: 139.50) to (Latitude: 22.70, Longitude: 165.60).

Table of predicted overpasses for the next 14.0 days since TLE Epoch: 3/2/2024
Interval Starting Time Starting Location Ending Time Ending Location
1 03/02/2024 02:52:25 ( 10.05, 156.70) 03/02/2024 02:56:00 ( 22.67, 153.70)
2 03/02/2024 15:24:17 ( 22.65, 153.94) 03/02/2024 15:27:52 ( 10.02, 150.93)
3 03/03/2024 02:33:21 ( 10.01, 161.47) 03/03/2024 02:36:57 ( 22.69, 158.45)
4 03/03/2024 15:05:14 ( 22.69, 158.71) 03/03/2024 15:08:50 ( 10.01, 155.69)
5 03/04/2024 02:15:06 ( 12.79, 165.59) 03/04/2024 02:17:54 ( 22.65, 163.23)
6 03/04/2024 03:55:49 ( 10.04, 140.85) 03/04/2024 03:57:28 ( 15.85, 139.50)
7 03/04/2024 14:46:11 ( 22.67, 163.47) 03/04/2024 14:49:46 ( 10.05, 160.46)
8 03/05/2024 03:36:46 ( 10.06, 145.61) 03/05/2024 03:40:21 ( 22.68, 142.61)
9 03/05/2024 14:30:16 ( 11.67, 165.60) 03/05/2024 14:30:44 ( 10.03, 165.22)
10 03/05/2024 16:08:38 ( 22.70, 142.86) 03/05/2024 16:12:14 ( 10.02, 139.84)
11 03/06/2024 03:17:43 ( 10.02, 150.38) 03/06/2024 03:21:19 ( 22.70, 147.36)
12 03/06/2024 15:49:36 ( 22.68, 147.62) 03/06/2024 15:53:11 ( 10.06, 144.61)
13 03/07/2024 02:58:40 ( 10.04, 155.14) 03/07/2024 03:02:15 ( 22.66, 152.13)
14 03/07/2024 15:30:33 ( 22.65, 152.37) 03/07/2024 15:34:08 ( 10.03, 149.37)
15 03/08/2024 02:39:37 ( 10.00, 159.91) 03/08/2024 02:43:13 ( 22.68, 156.89)
16 03/08/2024 15:11:30 ( 22.69, 157.14) 03/08/2024 15:15:06 ( 10.01, 154.13)
17 03/09/2024 02:20:34 ( 10.03, 164.66) 03/09/2024 02:24:09 ( 22.65, 161.66)
18 03/09/2024 14:52:27 ( 22.66, 161.90) 03/09/2024 14:56:02 ( 10.04, 158.90)
19 03/10/2024 03:43:01 ( 10.01, 144.06) 03/10/2024 03:46:37 ( 22.69, 141.04)
20 03/10/2024 14:34:39 ( 18.30, 165.59) 03/10/2024 14:37:00 ( 10.02, 163.65)
21 03/10/2024 16:14:54 ( 22.69, 141.29) 03/10/2024 16:17:00 ( 15.29, 139.50)
22 03/11/2024 03:23:58 ( 10.03, 148.81) 03/11/2024 03:27:33 ( 22.65, 145.81)
23 03/11/2024 15:55:51 ( 22.66, 146.05) 03/11/2024 15:59:26 ( 10.04, 143.05)
24 03/12/2024 03:04:55 ( 10.00, 153.58) 03/12/2024 03:08:31 ( 22.68, 150.57)
25 03/12/2024 15:36:48 ( 22.69, 150.82) 03/12/2024 15:40:24 ( 10.01, 147.80)
26 03/13/2024 02:45:52 ( 10.03, 158.34) 03/13/2024 02:49:27 ( 22.65, 155.34)
27 03/13/2024 15:17:45 ( 22.66, 155.57) 03/13/2024 15:21:20 ( 10.04, 152.57)
28 03/14/2024 02:26:49 ( 10.00, 163.11) 03/14/2024 02:30:25 ( 22.68, 160.09)
29 03/14/2024 14:58:42 ( 22.69, 160.34) 03/14/2024 15:02:18 ( 10.01, 157.33)
30 03/15/2024 02:10:31 ( 19.67, 165.60) 03/15/2024 02:11:22 ( 22.66, 164.86)
31 03/15/2024 03:49:17 ( 10.05, 142.49) 03/15/2024 03:52:50 ( 22.55, 139.51)
32 03/15/2024 14:39:39 ( 22.65, 165.10) 03/15/2024 14:43:14 ( 10.03, 162.10)
